Wind_Speed
29 32 29 29 26 24 23 22 19 19 19 20 20 20 20 21 21 22 23 24 24 24 23 25 25 25 26 26 25 27 27 27 26 27 28 27 27 25 25 26 23 24 21
34 35 33 30 28 26 24 22 21 19 20 20 22 22 22 23 22 23 23 23 23 21 22 24 24 25 25 24 26 26 28 26 29 28 27 27 26 24 26 22 26 23 24
38 38 35 33 29 27 25 23 21 20 22 23 22 23 24 24 25 23 26 25 24 23 24 22 23 23 24 24 25 25 25 26 25 25 25 27 25 23 23 22 22 22 22
36 40 39 35 30 29 28 25 22 21 23 25 24 24 25 23 23 24 25 26 24 22 22 22 21 22 23 23 23 22 24 25 25 25 24 26 24 22 22 21 17 22 19
31 39 40 38 33 31 29 28 26 24 24 24 26 24 25 24 26 25 25 25 24 22 22 22 22 23 24 24 24 23 24 25 26 24 22 24 22 22 22 22 19 21 17
22 22 33 38 36 33 30 28 28 27 27 26 27 26 25 26 25 24 28 27 25 24 26 24 22 24 25 24 22 24 22 23 26 23 23 23 22 20 19 19 18 18 17
22 22 24 30 32 33 30 30 29 29 28 27 27 28 27 26 25 25 27 28 26 25 24 25 24 23 25 23 21 22 22 20 21 20 20 19 18 18 19 18 17 16 17
19 22 25 29 28 29 30 31 29 29 28 27 28 27 27 27 24 25 29 29 26 25 20 22 24 23 25 23 21 23 23 20 22 22 20 19 17 18 19 18 17 17 16
17 22 23 29 28 28 28 31 31 30 30 30 29 29 27 27 26 29 29 29 28 27 25 23 23 22 24 25 24 21 23 22 22 20 18 19 18 17 18 18 16 16 15
13 20 25 28 29 28 28 29 31 31 30 31 31 29 29 27 27 30 28 27 27 27 26 27 26 24 25 25 24 23 23 19 20 18 18 17 18 17 17 16 16 15 14
3 18 24 30 30 31 29 29 30 31 28 30 31 31 31 27 28 30 30 29 27 27 26 25 25 27 26 23 22 22 23 21 19 19 19 15 16 16 16 16 15 14 13
14 8 19 27 31 30 32 32 33 32 31 31 33 33 33 30 30 31 30 29 30 28 25 24 25 26 27 26 24 24 22 20 20 19 19 16 15 15 15 15 14 13 12
20 18 13 9 18 32 33 35 37 36 35 36 37 37 35 32 31 31 31 31 33 32 26 24 28 28 27 26 26 24 23 20 19 19 18 16 15 14 13 13 12 12 11
23 25 19 18 14 16 32 32 36 35 36 37 40 41 39 35 34 34 35 34 36 36 32 29 27 28 27 26 24 23 22 21 20 19 17 15 15 14 12 11 11 10 9
25 28 29 24 22 21 12 32 35 35 35 35 38 43 41 40 38 37 38 36 36 39 34 30 27 30 28 25 23 23 23 22 21 20 18 14 14 12 11 10 9 8 6
29 30 31 33 28 27 27 19 36 34 34 35 36 42 45 43 42 39 39 38 35 39 35 32 30 30 27 24 24 22 20 20 20 19 19 17 15 12 11 9 8 8 7
34 34 32 32 34 34 34 23 33 38 33 35 36 38 47 45 45 44 40 39 37 37 37 33 31 27 24 26 25 21 19 18 18 18 18 18 16 15 12 11 10 9 8
37 36 35 31 32 37 45 34 23 39 40 36 36 38 44 47 46 43 40 37 39 36 38 37 33 27 24 28 28 24 20 18 17 15 15 15 15 15 15 14 12 11 10
37 40 41 39 40 40 41 38 32 29 40 38 39 39 40 45 45 41 37 40 41 38 38 40 36 31 26 28 27 24 21 19 17 16 16 15 15 15 15 15 14 14 13
35 40 43 42 40 40 37 39 42 27 31 41 39 41 41 42 43 40 35 41 43 41 39 39 37 31 29 28 26 23 21 20 19 19 18 16 16 16 16 15 15 16 15
36 37 45 41 47 38 38 36 36 38 37 41 41 42 44 44 43 42 37 41 45 44 42 41 38 31 27 27 24 16 19 20 21 21 20 19 19 19 18 18 16 16 16
48 46 44 48 46 44 42 42 39 40 40 26 45 43 46 48 46 44 40 42 44 40 40 43 38 29 24 30 13 15 3 8 21 23 24 24 23 22 22 21 19 18 18
46 51 48 46 46 45 46 37 40 32 29 37 41 47 51 51 49 44 41 43 46 44 44 46 43 38 24 33 21 9 2 4 4 18 29 28 26 25 24 22 21 20 20
40 47 49 47 46 48 44 41 39 37 38 39 28 52 48 52 49 46 45 47 48 45 40 43 44 40 32 29 25 20 8 6 4 2 11 27 27 27 25 24 23 21 20
34 29 41 47 44 47 44 48 42 36 38 43 51 35 49 48 48 49 49 46 44 42 42 44 40 38 39 31 31 26 14 9 5 2 2 4 20 30 28 25 23 22 21
26 29 36 41 43 46 44 47 46 43 40 38 44 36 40 44 48 49 48 46 44 45 44 46 47 41 41 33 34 32 28 12 7 4 1 3 4 9 22 24 24 23 21
Wind_Direction
189 177 174 172 167 166 160 155 154 152 148 141 140 139 137 132 128 123 119 118 112 108 109 111 111 108 109 105 105 105 105 107 107 106 104 102 100 97 98 99 105 99 96
179 178 175 177 171 169 166 164 160 158 154 149 142 138 138 137 132 132 128 123 120 121 116 112 109 110 112 109 109 108 111 114 111 112 109 105 105 103 106 104 99 100 93
176 177 178 179 176 172 168 168 162 158 154 149 146 142 141 138 135 134 136 129 127 125 120 117 112 113 113 112 111 111 118 116 111 112 112 108 105 101 100 104 100 103 95
179 178 179 181 178 175 171 168 165 163 158 151 152 147 146 142 141 137 132 130 130 129 122 122 124 119 116 114 112 114 120 122 121 113 112 104 107 106 108 104 107 110 109
184 180 183 180 180 179 177 171 168 165 159 159 156 154 151 146 142 138 136 137 138 134 135 126 125 125 123 119 119 119 120 121 119 118 119 113 113 114 108 112 100 102 102
183 191 189 184 181 184 181 177 170 169 166 166 164 161 155 149 142 144 143 143 143 142 136 132 130 129 127 127 122 124 126 123 129 121 114 118 113 112 114 111 111 104 111
185 193 197 194 188 186 184 181 177 173 170 171 169 164 160 154 151 149 150 144 146 144 138 137 135 133 133 131 129 137 132 130 126 121 120 115 115 120 116 115 115 115 108
186 196 200 197 199 195 187 182 181 176 176 175 173 168 164 160 159 157 155 149 148 149 141 143 140 140 141 140 138 141 140 139 134 135 131 127 124 122 124 124 118 115 114
196 203 202 201 203 202 196 187 185 182 182 178 176 175 172 169 165 161 161 157 154 156 146 147 146 147 149 148 145 147 142 138 136 132 138 130 132 128 125 118 119 116 117
216 210 206 206 205 204 201 196 190 187 188 182 179 177 177 174 168 166 167 167 161 162 156 152 153 151 154 152 151 146 143 144 140 140 139 136 130 128 124 124 122 121 117
291 220 211 212 209 205 203 203 196 191 194 189 185 182 179 177 172 170 171 169 170 170 166 160 159 158 159 158 158 159 153 151 149 144 141 142 139 132 130 129 127 125 122
308 296 221 220 216 210 205 205 200 198 192 194 191 186 184 181 177 178 176 173 173 175 172 171 167 165 161 161 162 162 162 156 152 150 146 143 138 135 135 135 136 135 132
286 284 266 243 231 222 205 205 204 202 197 193 194 189 188 185 181 180 176 175 174 175 174 179 172 171 167 163 162 166 165 159 155 150 150 152 145 144 143 146 146 142 138
271 270 269 264 244 233 220 209 206 203 198 194 193 194 190 188 185 183 180 180 180 180 176 179 177 176 172 167 168 167 163 164 161 158 156 156 155 153 154 156 154 149 145
264 268 267 265 252 253 266 210 208 208 203 198 194 195 195 190 188 186 185 184 185 182 180 179 179 178 177 174 172 169 169 170 170 168 162 165 168 164 163 164 164 158 159
261 261 260 254 248 249 256 243 208 209 208 206 200 195 198 194 189 189 189 187 188 187 184 179 175 175 181 182 178 176 173 173 175 177 174 175 178 174 174 177 179 178 181
264 265 259 260 254 247 255 251 209 207 209 206 204 199 198 197 193 190 191 192 192 191 188 183 180 181 186 189 186 185 181 180 184 187 188 188 188 190 185 192 200 200 205
260 257 257 241 243 240 235 235 248 204 210 208 205 203 198 197 196 191 190 194 196 193 192 186 184 186 191 189 187 188 189 188 187 194 198 199 202 206 207 206 208 213 221
253 258 254 249 238 237 244 234 239 220 206 208 205 203 198 196 194 191 191 194 197 196 194 192 187 186 185 186 187 190 194 198 196 196 202 210 217 221 224 224 225 226 227
253 252 252 246 240 235 229 231 226 237 218 210 204 201 198 197 193 190 193 196 197 197 196 194 191 188 185 185 189 196 203 207 208 210 211 214 218 222 227 229 233 237 240
254 243 238 237 238 225 220 216 216 225 244 209 204 203 197 195 194 194 194 196 196 195 197 195 191 188 185 184 179 194 209 215 219 221 224 226 230 230 231 234 236 243 248
263 249 233 228 228 222 218 213 215 217 234 255 204 202 198 193 195 194 193 193 194 190 195 196 192 182 185 185 167 141 164 242 235 229 230 232 237 238 238 238 241 245 251
261 247 240 230 223 219 215 212 213 211 224 237 211 194 197 193 194 193 191 192 194 195 194 196 194 190 180 185 185 155 141 215 179 224 230 233 235 235 239 240 244 247 252
279 255 234 231 223 218 209 207 205 204 210 226 254 198 194 191 189 191 192 195 194 194 192 194 196 195 186 184 188 195 188 155 185 213 224 229 230 234 239 242 246 251 252
282 252 224 227 221 219 206 205 202 209 213 217 228 217 191 189 188 189 192 193 192 192 195 195 195 195 195 191 195 193 185 183 177 137 202 222 228 236 239 244 248 251 251
268 251 224 222 219 217 209 206 201 204 204 204 221 253 185 186 183 190 190 190 191 192 195 197 199 198 198 199 199 203 203 190 187 163 144 201 213 238 241 245 247 248 248
Height
754 758 763 768 771 774 777 780 782 784 785 786 788 789 790 791 792 793 794 796 797 800 803 804 806 806 807 808 810 811 813 815 817 818 820 821 822 824 826 828 831 832 833
750 756 761 767 770 773 776 780 782 785 786 788 789 791 792 793 794 796 796 798 800 803 804 806 807 809 811 811 813 815 817 818 819 821 822 824 825 827 829 832 832 835 836
750 753 759 765 770 773 776 779 783 785 787 789 791 792 793 795 796 797 798 799 801 803 805 807 809 811 812 814 817 817 819 820 823 824 825 827 829 830 833 834 836 837 840
752 753 757 763 768 773 776 779 782 786 788 790 792 793 795 797 798 799 800 799 802 804 806 809 811 812 814 816 817 819 822 823 824 825 828 829 834 833 835 837 839 840 844
757 754 756 759 766 771 774 778 781 784 788 791 792 794 795 798 799 801 801 802 804 806 808 811 813 815 816 817 821 821 824 826 826 829 832 834 835 837 838 839 842 844 846
762 766 762 761 762 769 772 775 780 784 787 791 793 794 797 799 801 803 804 805 807 809 811 813 816 818 820 822 822 823 827 828 830 832 833 835 838 840 841 842 844 848 850
761 765 769 771 768 769 772 775 778 782 787 790 793 795 797 799 802 804 807 808 810 812 813 815 816 819 821 823 824 826 829 832 833 834 837 838 840 843 843 846 849 851 853
760 765 768 772 775 774 773 776 778 781 784 789 792 795 797 799 802 806 808 810 811 813 816 817 819 821 823 826 828 828 832 834 835 839 840 842 844 846 846 849 851 851 854
762 764 768 771 775 777 778 777 779 783 783 787 791 795 797 800 802 806 809 811 812 814 815 818 821 823 824 828 830 832 834 836 840 841 842 845 848 848 849 851 852 855 857
763 763 767 770 773 776 779 781 780 783 786 788 790 794 797 799 802 804 807 812 815 815 816 817 819 823 827 830 831 833 835 839 841 843 845 847 849 848 850 852 854 856 858
761 763 764 768 771 773 777 781 783 782 787 789 791 792 795 799 802 803 805 809 815 818 818 820 821 822 826 829 832 834 836 839 841 844 847 849 849 850 851 853 855 857 858
761 759 762 764 767 769 773 777 781 782 783 789 790 792 793 797 800 803 805 807 812 818 820 821 823 824 825 827 831 836 839 840 842 845 847 849 850 851 852 854 856 857 858
759 759 759 760 765 768 769 772 777 779 780 782 786 788 792 795 798 802 806 807 810 815 820 822 822 824 825 828 830 834 837 840 842 844 847 848 850 853 855 857 857 857 859
754 757 756 758 760 763 767 769 773 775 776 777 780 785 786 793 797 799 803 806 808 811 814 820 823 825 826 828 830 832 835 838 841 845 846 849 851 852 855 857 858 858 858
750 751 751 753 756 760 761 764 768 771 773 775 776 779 784 787 793 797 800 803 807 809 812 817 821 825 828 830 831 832 834 838 841 844 846 849 851 853 855 857 858 859 861
744 744 748 750 750 754 757 759 761 766 770 773 773 773 777 782 786 793 797 800 805 808 811 814 819 824 828 830 832 833 835 837 840 843 845 847 850 852 854 857 857 858 858
735 738 740 741 745 745 747 749 753 759 763 766 768 770 771 776 781 786 794 798 802 806 809 814 818 823 825 829 832 834 835 837 840 843 844 846 848 850 852 854 856 856 857
730 732 734 737 737 740 746 744 748 748 755 759 762 766 767 770 776 781 786 793 799 803 808 810 815 820 823 824 828 832 836 837 839 843 845 846 847 849 851 852 854 855 857
722 722 723 727 729 732 733 734 742 740 745 751 755 760 762 766 770 776 780 785 793 799 804 808 811 815 820 824 827 830 833 836 837 839 841 845 847 848 849 850 852 853 854
713 714 714 716 717 721 725 726 731 736 736 742 745 749 755 763 765 769 777 779 785 793 798 804 809 813 816 821 825 829 832 834 836 837 839 840 842 844 846 847 849 851 852
701 703 700 704 701 710 713 715 716 722 729 730 735 743 746 754 761 764 769 774 779 784 791 798 805 811 815 819 823 828 831 833 834 835 837 838 839 840 842 843 844 848 851
686 683 682 683 687 691 698 700 707 709 718 721 723 732 737 743 750 755 761 766 774 778 786 793 798 805 811 815 820 825 832 834 831 831 833 834 836 839 839 840 841 842 845
666 664 669 670 673 678 685 695 699 706 707 713 705 715 721 730 739 747 753 760 766 772 776 783 791 796 802 810 815 818 829 827 826 826 827 829 831 833 835 837 837 838 840
649 646 652 658 663 666 671 679 684 683 686 691 704 703 711 719 725 737 744 752 758 764 771 777 785 789 796 802 810 812 814 816 821 824 821 823 826 828 830 832 833 834 836
640 631 634 644 649 655 658 663 670 680 679 682 700 688 700 706 714 725 734 744 752 759 764 770 779 784 789 795 800 805 810 814 815 817 819 819 820 822 824 827 828 830 832
625 624 624 629 634 642 648 653 656 663 671 678 686 693 679 693 699 715 724 733 743 749 757 763 772 779 783 788 796 799 803 807 810 812 816 817 816 818 820 822 824 825 828